Theta_e
314 313 314 314 314 316 315 315 316 316 316 315 315 313 310 310 310 314 317 316 317 315 314 316 315 316 316 316 319 322 323 321 321 322 328 333 334 333 333 336 340 340 339 340 342 342 343 343 343 342 340 338 336 332 334 335 333 332 332 333 334 335 334 334 333 333 334 336 335 333 332 331 331 330 331 331 330 330 330 330 330 331 330 331 331 332
315 314 315 315 315 317 317 316 317 318 318 316 314 312 311 310 312 315 317 316 318 316 315 317 315 316 318 317 318 324 325 323 321 324 330 334 332 331 332 335 339 339 339 339 341 342 343 343 342 341 339 337 333 331 333 334 332 331 331 334 334 334 334 331 332 334 333 333 331 332 331 330 329 328 329 330 329 329 330 330 329 329 329 330 330 330
314 314 316 317 316 317 318 317 317 318 318 316 314 312 310 311 313 315 317 318 318 316 315 317 316 316 319 318 321 326 327 324 322 324 329 332 332 331 332 336 337 337 339 341 341 342 343 342 341 341 338 335 331 331 333 333 332 332 333 334 334 334 332 331 333 333 332 332 331 331 330 330 328 329 329 327 327 326 327 328 328 328 328 328 328 328
314 313 315 317 317 318 318 318 317 317 316 316 313 310 309 312 312 311 316 318 317 317 316 317 318 317 319 319 321 328 327 324 324 323 328 331 332 332 332 336 336 337 341 341 340 341 342 342 342 340 338 334 331 331 333 332 332 333 334 334 334 332 332 334 333 331 331 333 332 332 331 331 330 329 327 325 325 324 324 325 326 328 328 327 327 326
314 315 316 316 317 318 317 316 316 314 313 314 315 312 311 313 312 311 316 319 318 319 318 318 316 314 318 319 320 325 326 326 326 325 329 332 333 332 333 336 337 339 341 340 340 341 341 343 342 341 337 333 331 331 332 333 333 332 334 333 331 331 333 335 333 330 333 335 334 334 333 330 328 327 326 325 325 324 324 325 325 327 328 327 326 326
314 317 316 316 316 316 315 315 316 314 312 312 315 315 314 315 316 315 318 318 315 315 317 317 311 310 317 319 320 325 326 327 329 328 331 333 333 333 334 335 336 339 340 339 340 340 341 343 342 341 337 333 331 331 332 333 333 331 332 331 329 332 335 334 333 333 335 336 335 334 332 329 327 327 326 326 326 324 323 324 324 325 326 326 326 325
314 317 316 315 316 315 314 314 315 315 312 311 314 315 315 317 317 316 317 316 312 313 318 317 311 309 315 318 321 326 326 328 329 329 330 332 333 333 333 335 336 337 338 337 337 337 338 340 340 337 332 330 330 330 332 332 331 332 332 333 334 336 336 335 335 336 336 334 333 331 330 329 328 328 328 327 326 324 323 322 322 324 325 326 326 326
315 316 315 315 315 314 313 313 315 316 311 311 316 316 314 316 318 317 317 315 313 315 318 319 313 310 313 317 321 324 324 325 328 330 329 329 333 333 333 334 334 336 336 335 337 333 331 334 336 334 330 329 330 331 332 331 331 334 334 335 337 336 334 335 335 335 334 332 331 331 329 329 328 328 328 327 325 323 323 322 321 322 324 325 325 325
315 314 314 314 313 314 313 313 316 315 312 314 318 317 315 315 317 317 315 314 314 314 313 316 314 311 313 318 321 324 321 321 328 331 329 328 331 332 333 334 334 334 332 334 334 330 330 332 333 333 332 330 331 331 331 332 332 332 333 335 336 334 333 335 336 335 333 331 331 332 330 329 328 326 325 325 323 323 323 323 322 322 323 325 324 324
316 314 314 314 313 314 315 315 316 314 314 316 318 317 316 316 316 317 316 312 314 314 312 314 314 310 312 316 321 323 320 321 328 331 329 330 331 332 334 335 334 334 334 334 331 331 332 334 334 333 333 330 330 331 330 331 331 330 332 334 335 334 334 336 335 334 333 331 331 332 330 328 326 324 323 323 323 323 323 323 322 322 323 324 324 324
315 314 314 314 313 315 316 316 316 315 314 317 319 316 316 316 317 316 316 314 313 314 313 313 313 311 310 315 320 321 321 324 327 327 328 330 331 331 333 334 334 333 335 333 332 335 336 336 336 335 335 333 330 330 330 330 331 331 333 334 333 334 334 335 335 333 333 331 330 330 328 328 326 324 324 323 324 323 322 322 322 323 324 324 324 323
314 314 314 314 314 315 316 316 316 315 314 317 318 315 313 313 314 313 312 313 313 313 312 312 314 313 310 315 320 321 323 325 325 324 327 329 329 329 330 332 333 332 334 334 334 338 338 337 338 336 336 335 331 330 330 331 331 332 332 333 332 332 332 332 332 332 332 331 330 329 327 328 327 325 324 324 324 324 322 322 322 324 324 324 323 321
313 314 313 314 315 315 315 314 314 314 315 317 316 314 312 311 312 312 311 312 312 312 313 313 315 313 312 317 323 324 324 326 326 325 325 327 327 327 329 330 331 332 334 335 336 337 337 337 337 337 336 335 333 332 331 332 332 332 333 332 330 332 331 330 330 330 330 330 330 329 326 327 327 325 324 324 324 323 322 321 322 323 323 323 322 319
312 314 313 313 314 314 314 312 312 312 313 315 314 312 311 312 313 314 312 312 312 312 313 315 315 313 313 320 326 326 325 327 329 327 325 325 324 325 326 326 330 333 334 335 335 335 335 336 336 336 336 334 334 333 332 333 333 334 334 332 330 331 330 329 329 330 329 329 329 329 327 326 327 326 324 323 323 322 321 321 321 322 322 322 320 319
311 312 313 313 314 314 315 313 314 315 313 314 315 314 313 312 313 313 312 311 312 312 313 316 316 312 313 321 324 326 327 327 328 326 325 325 323 324 324 323 330 332 333 334 335 334 334 336 336 336 335 334 334 334 333 333 334 334 333 333 332 330 328 327 326 327 327 327 328 329 329 327 327 326 324 323 322 321 320 321 321 321 321 320 320 319
310 311 313 315 314 314 314 314 316 316 314 315 315 314 312 313 313 312 312 313 313 312 313 314 314 315 318 322 323 325 328 327 328 328 327 327 325 327 326 326 330 332 333 335 336 335 334 335 335 334 334 334 334 333 333 333 334 333 333 334 333 330 328 326 324 324 326 324 325 328 330 328 327 326 323 322 321 320 320 320 320 320 320 319 318 319
310 312 315 315 315 314 314 314 315 315 314 316 314 312 315 317 315 311 312 315 314 312 313 313 313 316 319 321 323 325 326 327 329 328 330 330 330 330 330 330 330 332 334 336 335 334 334 332 332 333 334 334 333 333 333 333 332 332 333 333 332 330 328 326 324 323 322 323 325 328 329 328 327 326 323 322 322 321 321 320 320 320 320 319 319 319
313 312 315 315 313 315 315 314 316 315 316 315 314 314 316 316 316 313 312 313 313 312 311 312 313 314 314 318 323 324 326 329 329 329 330 331 332 331 331 330 330 331 333 334 333 333 332 331 331 333 333 332 333 333 332 332 331 331 331 331 331 329 328 327 326 324 324 326 328 329 330 329 328 326 323 323 323 322 321 320 320 320 320 319 319 319
315 312 314 315 314 315 315 314 314 315 315 316 315 317 316 313 313 312 312 312 314 313 311 311 312 311 311 316 321 324 327 330 329 329 330 331 331 331 331 330 330 331 332 332 332 331 332 332 331 331 331 331 331 331 331 331 331 331 331 331 330 329 329 329 329 328 328 329 330 330 330 329 328 327 323 322 324 322 321 320 319 319 319 319 319 319
317 315 315 315 315 315 314 313 311 312 314 315 315 316 316 314 313 312 312 312 312 313 313 312 312 314 318 320 320 324 328 328 328 329 329 330 331 330 330 330 330 331 331 330 331 329 329 328 327 328 330 331 331 331 331 331 331 330 330 331 331 329 330 330 330 330 329 329 329 330 330 328 328 327 323 321 322 321 321 321 320 319 320 319 319 319
316 317 315 316 315 313 313 313 312 312 313 313 312 313 314 315 314 314 314 313 311 312 313 311 313 321 325 325 323 325 328 327 327 330 329 329 329 328 329 329 328 328 329 328 329 328 326 325 325 328 331 330 329 330 331 331 330 329 328 330 329 329 329 329 329 330 329 328 329 329 329 328 327 328 325 321 320 320 321 322 322 322 321 319 319 319
316 316 316 317 315 312 312 314 314 314 314 315 313 312 313 313 313 313 314 313 312 311 312 312 316 325 327 325 326 328 327 327 326 328 329 328 329 329 329 328 328 327 326 326 326 325 325 326 325 328 328 328 328 329 330 330 330 329 328 328 328 328 328 328 328 328 328 329 329 329 328 327 328 328 326 323 320 320 322 322 321 322 321 320 319 319
317 316 316 316 315 313 314 314 314 314 314 315 315 314 315 314 312 312 311 313 311 311 312 311 315 324 325 323 327 327 326 327 326 327 328 327 328 328 327 327 327 326 325 325 326 326 326 327 326 326 326 327 328 327 328 330 330 329 328 327 327 327 327 328 328 327 328 329 328 329 328 328 329 328 327 326 322 321 324 321 319 319 320 321 320 318
317 316 315 315 315 315 315 314 314 315 313 314 314 315 316 315 314 314 313 314 312 311 313 310 313 322 324 324 327 325 325 328 327 326 327 327 326 326 326 327 326 326 326 326 327 328 328 328 327 327 327 328 328 327 327 329 329 328 328 326 326 327 327 327 328 327 328 328 328 328 329 329 330 328 328 328 324 322 323 323 320 320 321 322 321 319
315 315 315 316 316 317 316 314 313 313 312 313 314 315 315 315 317 317 316 316 314 313 313 311 315 323 325 324 325 324 325 328 328 327 326 327 327 324 325 327 327 327 326 326 328 329 328 328 328 328 328 328 328 328 328 328 328 327 327 327 327 327 327 327 327 327 328 328 328 328 328 328 329 329 329 328 326 323 322 322 322 321 321 321 321 321
315 317 317 317 319 320 318 316 314 313 313 313 313 315 316 314 315 316 314 314 314 314 312 312 319 326 325 324 326 325 326 329 328 328 327 328 327 325 326 328 328 328 327 326 327 328 328 328 329 329 329 329 328 329 328 329 329 328 328 329 329 328 328 327 327 328 328 328 328 327 328 328 328 329 328 327 327 325 323 321 321 322 322 321 320 321
316 318 318 319 319 319 317 315 314 314 315 314 313 313 316 315 316 317 314 313 314 315 313 314 322 327 325 324 326 326 326 328 329 328 328 328 328 327 327 327 327 326 326 325 325 325 325 326 327 329 329 328 328 329 328 329 329 329 330 330 330 329 329 329 328 328 328 328 328 328 328 328 328 328 327 326 326 326 326 322 320 320 321 321 321 321
316 317 318 318 317 317 315 314 314 314 314 314 313 314 315 315 317 317 316 317 316 315 317 322 326 327 326 325 324 325 326 327 328 329 328 328 327 326 326 326 325 324 323 323 323 323 323 323 324 326 327 327 327 327 327 327 327 328 328 329 329 328 329 329 328 328 328 328 328 328 328 328 327 326 326 326 325 326 326 324 322 321 320 320 321 321
317 317 316 316 315 314 314 314 314 313 313 314 316 316 317 318 319 319 319 320 319 317 321 326 328 326 325 323 323 324 325 326 327 326 326 325 325 324 324 323 322 321 321 321 321 321 321 321 322 324 324 325 325 325 326 327 327 327 327 327 328 328 327 327 328 328 328 327 328 328 327 327 326 326 326 325 325 325 325 325 324 324 323 322 321 321
318 318 317 316 314 314 313 313 313 313 313 315 315 316 317 318 319 320 321 322 322 324 325 326 325 324 322 321 322 322 322 323 324 324 323 323 323 322 322 321 321 320 319 320 319 319 319 320 321 322 322 322 322 323 324 325 326 326 327 326 327 326 326 327 327 327 327 327 327 327 327 327 326 325 325 326 326 325 326 326 325 325 324 324 323 322
318 318 317 316 315 316 314 313 314 314 313 314 315 315 317 318 318 319 321 323 324 325 325 323 323 322 320 319 319 320 321 322 322 322 321 321 321 321 320 320 319 319 318 317 317 317 317 318 319 319 320 320 320 321 322 322 323 324 325 325 325 325 325 326 326 326 326 326 326 327 326 326 326 325 324 325 325 325 325 325 325 324 323 322 323 322
317 317 317 316 316 317 315 314 314 314 314 314 315 315 316 318 317 316 317 320 321 322 323 322 321 320 319 318 319 320 321 321 319 319 319 319 319 319 319 318 317 317 316 316 316 315 314 315 316 317 317 318 318 319 320 320 321 322 323 324 324 325 324 325 325 325 325 326 326 326 326 326 326 325 324 325 325 325 324 324 324 323 322 321 322 322
317 317 317 317 317 317 316 315 315 316 316 317 317 317 317 317 316 316 316 316 318 318 320 320 318 318 318 317 317 316 315 313 311 311 313 314 314 315 316 316 316 315 314 314 313 313 312 312 313 313 314 315 315 316 317 317 317 319 320 321 321 322 322 322 323 323 324 324 325 325 325 325 325 325 325 325 325 324 323 323 323 322 322 322 322 322
318 318 317 317 317 317 317 317 317 317 318 317 315 315 317 316 315 316 316 314 314 315 317 318 316 316 317 316 314 310 307 305 303 303 305 305 306 307 308 310 310 310 310 310 310 310 311 311 310 310 311 311 312 313 313 314 314 315 315 316 316 316 317 318 318 319 320 321 322 323 324 324 325 325 325 324 324 324 322 322 323 321 321 321 321 321
318 317 316 316 316 316 317 318 318 318 317 315 313 313 314 315 314 314 314 313 313 314 315 315 314 314 313 312 309 306 303 302 301 301 302 302 301 301 301 302 303 304 304 305 305 307 308 308 308 308 308 309 309 310 311 311 312 312 312 313 313 313 314 314 314 315 315 316 317 318 319 321 322 323 324 324 324 324 323 322 321 321 321 322 321 321
317 316 315 315 315 316 317 318 318 316 314 313 312 312 313 314 313 313 313 313 313 313 312 311 310 310 309 308 307 305 304 303 302 301 301 302 302 302 302 302 302 302 302 302 302 303 304 305 305 306 306 307 307 307 308 308 310 311 311 311 312 312 313 312 312 312 312 312 312 313 313 315 316 318 320 321 321 322 322 322 322 322 323 322 321 322
315 315 314 315 316 316 317 317 316 315 314 313 312 312 313 313 313 314 313 312 312 312 311 308 307 307 307 307 307 306 306 305 304 303 303 302 303 302 302 303 302 301 301 301 300 300 300 301 303 304 304 304 305 305 305 306 307 309 309 310 310 311 312 312 312 312 312 312 312 311 311 311 312 313 314 315 316 317 319 321 322 323 324 322 322 323
313 315 314 315 315 314 314 314 315 316 316 314 312 310 311 311 312 313 313 311 311 311 311 308 307 307 306 307 307 306 307 307 306 305 304 303 303 303 303 303 303 302 302 302 302 301 301 301 301 302 303 304 304 304 304 305 306 307 308 308 309 310 310 310 311 311 311 311 311 311 311 311 311 311 312 312 313 315 316 317 318 320 321 321 321 321
312 314 313 313 313 312 312 313 314 316 314 312 311 309 308 308 310 311 312 311 309 310 310 309 309 309 308 308 308 308 310 310 307 304 304 304 304 304 304 304 304 303 303 303 303 303 303 303 303 303 303 304 304 303 303 304 305 305 306 307 308 308 308 308 308 308 309 310 310 310 311 311 311 311 311 311 312 314 314 314 315 316 317 317 317 317
311 312 312 312 312 312 312 312 312 312 311 310 309 307 305 306 308 310 312 311 308 308 309 308 309 309 309 309 309 308 308 308 306 304 304 304 303 303 304 303 303 303 302 302 302 302 302 303 303 303 303 303 303 303 303 303 303 304 305 305 306 307 307 306 306 307 307 308 308 309 310 310 311 311 311 311 312 312 313 313 313 314 314 314 314 314
310 310 311 311 312 312 313 313 313 311 309 309 308 307 306 307 308 309 311 309 307 307 308 308 308 308 308 308 308 305 304 304 303 302 303 303 302 303 303 303 302 302 302 302 301 301 301 302 302 302 302 302 302 302 303 304 303 303 304 304 305 307 306 305 305 305 305 306 307 307 308 309 310 310 310 311 311 312 312 312 313 313 313 312 312 312
309 309 309 310 310 311 312 313 313 310 307 307 307 306 307 309 309 309 308 307 306 307 307 307 307 307 307 307 306 304 303 303 302 302 302 302 302 302 302 302 302 302 301 301 301 300 300 300 301 302 301 301 301 301 302 303 303 303 303 303 304 305 305 304 304 304 304 305 305 306 307 308 308 309 309 309 310 311 311 311 311 311 311 312 311 310
308 308 308 308 309 309 309 311 313 310 306 306 307 306 307 308 308 307 306 306 306 306 306 306 306 306 306 305 304 304 304 303 303 303 302 302 302 302 302 301 301 301 301 300 300 300 299 299 300 300 300 301 301 301 301 302 302 303 303 303 303 304 305 304 303 303 303 304 304 305 305 306 306 307 308 308 309 309 309 310 310 310 311 311 311 310
307 308 308 308 308 308 309 309 310 308 306 306 307 306 306 306 306 306 306 306 306 306 305 304 304 305 304 304 304 304 304 303 303 302 302 301 301 301 301 300 300 300 299 299 299 299 298 298 299 300 300 300 300 300 301 301 301 302 302 302 302 303 304 304 303 303 303 303 303 303 304 304 305 306 306 307 308 308 308 308 309 310 310 311 311 310
307 307 307 307 306 307 308 307 306 306 305 306 306 306 305 305 305 306 306 305 305 305 304 304 303 303 303 304 304 303 302 301 301 301 300 300 300 300 300 299 299 299 299 299 299 298 298 298 299 299 299 299 300 300 300 300 300 301 301 302 302 302 303 303 302 302 303 303 303 303 303 304 304 305 305 305 306 306 307 307 307 309 309 310 310 311
305 306 306 306 306 306 306 306 305 305 305 304 304 304 305 304 304 304 304 303 303 303 302 302 302 301 301 301 302 301 300 300 300 300 299 299 299 299 299 299 299 299 298 298 298 298 298 298 298 299 299 299 299 299 299 299 300 300 300 301 301 302 302 302 302 302 303 303 303 302 302 303 303 304 304 304 305 305 305 306 306 307 308 309 309 310
304 305 305 306 306 306 305 305 304 304 304 304 303 303 303 303 303 303 302 301 301 301 301 301 301 301 300 300 299 300 300 299 299 299 298 298 299 299 299 299 299 299 298 299 298 298 298 298 298 299 298 298 298 298 298 299 299 299 299 300 300 301 301 301 301 302 302 302 302 302 302 302 302 303 303 303 303 304 305 305 305 305 306 307 308 308
304 303 304 304 304 305 305 305 304 304 304 303 303 303 302 302 301 301 301 301 301 301 301 300 300 300 299 299 298 299 299 299 299 298 298 298 299 299 299 299 298 298 298 298 298 297 297 298 298 298 297 297 298 297 298 298 298 298 298 299 299 300 300 300 300 301 301 302 302 302 302 302 302 302 302 302 302 303 303 303 302 303 304 305 306 306
303 302 302 303 304 304 304 304 303 303 303 303 303 302 302 302 301 301 301 300 300 300 300 300 299 299 299 299 298 299 298 298 299 299 298 298 299 299 298 298 298 298 297 297 297 297 297 297 297 297 297 297 297 297 297 297 297 297 298 298 298 298 299 299 299 300 300 300 301 301 301 301 301 302 302 302 302 302 302 302 301 302 303 304 305 306
302 302 302 302 302 302 303 303 302 302 302 302 302 302 301 302 301 301 300 300 300 300 300 299 299 299 299 299 299 299 298 298 298 298 298 298 298 298 298 297 297 297 297 296 296 296 296 296 296 296 296 296 296 296 296 296 296 297 297 297 297 297 297 298 298 298 298 299 299 300 300 300 301 301 301 301 301 301 301 301 301 302 302 303 304 304
302 303 302 301 301 302 302 302 302 302 302 301 301 301 301 301 301 300 300 300 299 299 299 299 299 299 299 299 299 298 298 298 298 298 298 298 298 297 297 297 296 296 296 296 296 295 295 295 295 295 295 296 296 296 296 296 296 297 297 296 297 297 297 297 297 297 298 298 298 298 298 299 299 299 299 300 300 300 300 301 301 301 301 301 302 301
Wind_Speed
8 7 9 8 9 11 11 15 12 7 9 8 8 9 12 10 8 13 9 10 9 9 11 15 13 14 15 14 12 12 11 11 13 13 12 11 11 11 11 12 12 10 10 11 14 16 15 14 13 12 13 12 14 21 20 16 14 14 12 12 14 14 14 14 13 12 13 9 7 8 8 8 8 8 8 7 7 7 7 7 7 7 7 6 5 4
8 8 9 11 12 10 10 14 10 5 7 8 8 6 9 9 8 13 10 10 8 8 8 12 15 13 12 14 12 12 11 12 13 13 13 13 12 11 12 13 12 8 8 11 13 15 15 14 13 12 13 13 18 20 19 17 17 17 14 15 16 17 17 16 17 15 14 8 8 8 8 8 9 8 8 8 7 7 7 7 7 7 7 6 5 5
8 8 11 12 9 5 4 6 6 6 8 9 8 7 7 8 8 10 8 7 7 6 8 12 13 11 13 14 10 11 10 10 12 14 13 14 13 12 12 12 11 9 9 11 12 13 15 15 14 13 12 17 21 17 18 18 19 22 21 22 21 19 19 17 16 14 12 7 8 8 9 8 9 9 8 9 8 8 8 7 7 6 7 6 5 5
7 9 14 12 6 4 5 5 6 7 8 9 9 8 8 8 10 7 7 8 8 7 9 11 9 10 11 10 8 10 11 10 12 14 13 13 12 11 12 11 11 12 11 12 13 12 14 14 14 13 11 21 24 17 18 20 21 25 24 23 19 16 17 16 13 11 10 8 9 8 10 8 10 11 10 10 9 8 8 7 7 6 7 6 6 5
9 6 9 10 7 7 10 8 9 8 8 10 11 11 9 10 11 6 4 8 8 8 10 10 7 9 9 9 10 9 10 11 11 13 13 12 12 10 11 12 12 12 11 12 13 12 12 12 11 12 12 21 24 16 16 20 23 24 21 20 19 17 18 16 13 11 10 11 11 10 11 10 11 11 9 9 8 8 8 7 7 7 7 6 6 5
10 4 5 6 6 9 11 9 11 10 8 10 12 15 14 11 11 6 5 7 7 7 11 11 8 7 9 12 12 10 10 11 11 13 13 12 12 11 10 11 11 11 11 11 11 11 10 9 8 8 8 16 22 19 18 20 22 22 19 21 23 20 18 17 15 13 12 12 11 11 10 9 10 9 8 8 7 7 7 7 7 7 7 7 6 6
7 6 6 8 8 11 12 10 12 11 9 8 11 16 17 13 9 8 8 9 7 5 8 12 10 6 8 12 13 12 12 13 12 12 13 11 11 11 10 10 10 10 9 9 10 7 5 5 6 7 8 15 22 23 21 20 19 16 17 19 19 17 16 16 14 12 11 10 10 10 9 9 9 8 8 8 7 7 7 8 7 7 7 7 6 6
7 6 6 9 10 11 10 9 11 13 11 8 6 13 16 13 9 9 9 9 7 4 4 10 11 7 5 9 13 15 14 15 14 11 12 11 10 10 10 10 10 8 7 8 7 8 4 5 8 12 14 18 25 24 20 18 13 9 13 16 14 14 15 14 12 11 10 9 10 9 9 9 8 9 10 9 7 8 8 8 7 7 7 7 7 6
9 11 8 10 10 8 9 11 11 13 12 6 4 10 13 14 12 10 11 9 6 5 5 9 11 8 4 7 12 15 15 16 14 11 11 10 8 9 10 10 9 8 9 6 8 10 8 12 10 13 17 20 23 19 13 11 8 9 11 14 13 13 13 12 11 11 9 9 9 9 9 9 9 10 10 9 9 8 8 7 7 7 8 7 7 6
6 11 11 11 11 8 11 11 10 14 12 4 5 10 10 11 12 9 10 8 6 7 8 9 11 8 5 7 9 10 12 13 11 9 9 8 8 10 11 9 8 7 6 6 10 12 14 13 8 11 16 21 24 19 13 10 13 15 15 15 16 15 14 13 13 12 10 9 8 7 8 9 10 11 10 10 9 9 8 8 8 8 8 8 7 7
1 3 6 10 12 7 5 4 4 11 12 3 4 9 8 8 8 7 8 7 5 7 9 10 11 10 6 7 8 9 10 9 8 7 7 10 9 8 8 7 7 6 5 8 10 14 16 13 9 12 16 24 28 27 26 23 21 22 20 19 19 17 16 14 14 14 12 9 6 6 7 9 10 10 10 10 10 9 9 9 9 9 8 8 8 7
5 6 6 9 12 6 2 4 5 10 11 6 6 9 8 7 7 7 7 7 6 7 9 10 11 10 7 4 6 9 9 7 7 10 11 12 11 10 8 6 6 6 5 8 10 10 13 13 12 14 18 24 26 26 28 28 26 26 25 24 22 20 18 17 15 14 13 9 4 4 7 8 9 10 10 10 10 10 10 10 9 9 9 9 8 8
8 9 10 11 11 8 7 8 8 9 10 8 8 9 8 6 6 7 7 7 7 6 7 8 10 9 5 3 2 5 10 7 4 7 11 13 13 11 9 6 5 6 6 7 8 8 9 10 11 14 18 21 20 21 23 25 27 29 27 27 27 24 23 22 20 17 15 12 6 4 7 8 8 9 10 10 10 10 10 10 10 10 10 9 9 9
7 9 13 13 10 9 11 8 7 8 9 10 9 8 8 6 5 7 7 7 8 6 5 6 6 7 4 6 6 6 6 5 6 8 8 9 8 8 9 11 10 8 8 7 7 8 8 10 12 14 16 17 16 18 20 21 22 23 22 25 27 26 26 26 24 19 16 14 9 5 6 8 8 8 10 10 10 10 10 11 11 11 10 10 10 10
9 8 12 13 9 11 14 12 7 7 9 10 10 9 7 5 6 7 5 5 5 5 7 7 5 6 4 4 8 7 5 5 7 10 10 10 10 10 11 14 13 10 8 8 7 7 7 9 12 14 14 14 14 15 17 18 18 20 21 22 25 28 28 27 27 23 18 16 12 7 6 8 8 8 9 10 10 10 10 11 11 11 11 11 11 10
10 8 10 16 12 11 15 14 11 8 8 9 9 9 8 7 6 4 2 1 2 3 5 7 4 2 3 4 6 6 3 5 7 9 10 10 11 10 10 12 13 11 9 9 8 7 7 9 9 11 12 13 14 16 16 17 17 18 19 18 22 27 28 26 27 27 23 21 16 11 9 8 8 8 8 9 10 10 10 11 11 11 12 12 11 11
9 6 9 16 14 11 14 14 12 10 6 5 8 10 7 6 6 5 3 3 1 5 4 4 5 4 7 7 7 7 4 5 7 7 7 7 7 9 10 11 12 12 10 9 8 7 10 12 8 8 10 10 11 13 14 15 14 13 13 13 15 19 21 21 22 24 23 21 17 13 11 10 9 8 8 9 11 11 11 10 10 11 12 13 12 11
6 5 6 13 14 12 10 10 12 12 8 5 6 8 6 4 5 5 4 3 5 8 5 5 7 7 6 6 10 13 11 9 9 8 7 6 7 8 10 11 12 12 11 10 10 10 13 13 10 8 7 7 8 9 11 12 11 11 12 13 13 14 15 15 16 18 18 16 14 13 12 12 11 9 9 10 11 11 11 11 10 11 12 14 13 12
5 6 6 10 13 13 10 8 10 10 11 10 5 4 6 5 5 5 5 4 6 7 6 7 8 7 6 5 10 14 11 11 10 8 8 8 8 9 9 11 12 12 12 11 12 13 12 12 12 10 7 7 8 8 10 11 10 12 13 14 15 15 13 12 12 13 13 13 12 11 12 13 12 10 10 11 12 12 12 11 11 11 12 14 14 14
5 6 5 8 10 10 9 9 9 8 10 11 8 6 7 6 5 5 4 5 7 6 6 8 8 5 2 1 7 9 10 11 9 8 8 9 9 9 9 10 11 11 11 10 11 12 12 13 15 13 10 9 10 10 10 10 11 12 12 13 15 15 13 12 11 11 12 13 11 11 12 14 14 13 12 13 12 12 12 11 11 11 12 13 13 14
6 5 5 6 8 8 7 8 11 10 10 10 9 8 8 6 4 4 4 6 7 6 6 7 6 2 5 5 3 9 11 10 9 10 9 9 10 10 11 10 9 9 10 10 10 11 12 13 14 15 12 11 11 10 10 10 11 11 11 12 14 13 12 11 10 10 11 12 12 12 14 15 15 14 13 14 14 12 12 11 11 11 11 11 12 13
5 6 6 6 7 8 8 9 13 13 9 7 9 10 10 8 6 6 7 7 6 6 5 6 3 3 5 6 2 9 10 9 10 10 9 10 12 12 11 10 9 9 10 10 10 9 10 12 14 14 12 12 11 10 10 10 10 11 11 13 13 12 12 11 10 10 11 12 13 13 14 15 14 13 13 14 15 13 12 12 12 11 11 11 12 13
1 4 7 8 8 7 5 5 6 8 8 9 8 8 9 9 8 7 7 6 6 6 6 7 3 3 2 5 4 5 7 9 11 10 9 11 11 11 11 11 10 10 10 10 9 8 8 11 12 11 10 10 10 10 10 9 10 11 12 13 14 13 14 13 13 12 11 11 12 12 13 14 13 13 13 14 15 14 13 12 12 12 11 11 12 13
0 4 7 8 7 7 5 4 5 6 8 10 8 7 9 9 9 8 7 5 6 7 7 7 5 3 2 2 2 5 7 9 10 10 9 10 10 10 11 10 9 9 9 9 8 7 8 10 10 9 8 7 7 8 9 8 11 13 12 13 14 13 14 14 13 13 11 10 11 11 12 12 12 13 14 13 14 14 14 13 13 13 12 11 12 13
3 4 6 7 6 7 9 8 7 7 8 8 9 9 11 12 11 8 6 5 6 7 7 6 3 3 3 1 3 7 9 9 10 10 9 9 10 9 8 9 8 8 9 9 9 8 8 8 8 9 9 8 7 7 6 6 10 13 12 12 13 12 12 13 12 12 11 10 10 11 11 12 13 13 13 13 12 13 15 14 13 13 13 12 12 12
2 1 3 6 5 5 6 4 4 5 7 8 9 9 9 12 13 9 6 6 7 8 9 7 2 6 5 5 6 8 9 10 9 9 9 8 9 9 8 8 8 8 9 10 9 9 8 8 8 9 10 9 9 8 7 6 7 9 10 10 11 11 11 11 11 11 10 9 10 11 11 12 13 13 13 14 12 12 14 15 14 14 13 12 12 12
2 2 2 2 2 2 4 7 11 9 7 10 11 10 8 10 11 9 8 8 5 6 8 5 7 12 9 9 9 8 8 9 8 9 9 9 10 10 9 9 9 9 9 9 8 8 8 8 9 10 11 11 10 9 8 7 7 7 8 9 9 10 9 10 10 9 8 8 9 11 11 12 13 12 12 14 14 13 13 14 14 14 13 13 13 13
4 4 3 2 1 2 5 7 12 14 10 7 6 7 7 8 8 7 7 6 4 4 3 2 11 13 11 11 11 8 7 8 8 9 10 9 10 10 10 10 10 10 10 10 8 7 8 8 8 9 10 11 11 10 8 9 8 7 8 9 8 8 7 7 7 7 7 7 8 9 11 12 13 12 12 13 13 12 11 12 12 12 13 14 14 15
4 5 5 3 3 1 3 3 7 11 10 4 2 1 0 2 5 5 2 2 3 2 3 8 13 11 9 10 10 8 8 7 7 9 9 9 9 10 10 11 11 10 11 10 9 8 8 8 7 7 9 11 13 12 11 11 10 9 9 9 8 7 7 6 6 7 7 7 7 7 8 10 12 11 11 11 11 11 11 10 11 11 12 12 13 15
2 3 6 5 5 3 2 4 5 7 8 5 3 3 4 5 5 6 6 6 6 8 10 13 15 13 10 9 8 7 7 7 8 9 9 9 10 10 11 11 10 10 11 11 10 9 8 8 8 7 8 8 10 12 11 11 12 11 10 9 9 8 8 7 7 7 7 7 7 7 7 8 9 9 9 9 10 10 10 10 10 11 12 11 11 11
2 2 6 5 5 6 4 2 4 5 8 8 7 7 5 5 8 8 8 8 8 10 12 14 15 12 9 8 8 6 6 7 8 9 9 8 8 10 11 11 11 10 10 10 10 10 9 9 9 9 9 8 8 8 9 10 11 11 10 10 9 8 8 8 7 6 6 6 6 6 6 6 6 7 9 9 8 8 9 9 9 9 11 12 12 11
3 3 5 5 5 5 7 7 3 2 6 9 10 9 7 5 7 8 7 8 7 6 9 11 10 8 8 9 9 8 8 10 11 10 9 8 7 9 10 11 11 10 10 11 11 10 10 10 9 10 10 10 9 8 7 8 8 8 9 9 8 8 7 7 7 6 6 6 6 5 5 5 4 5 7 7 6 6 6 7 8 8 10 14 15 13
4 4 5 6 6 4 6 9 7 4 1 5 7 5 3 4 4 5 7 8 10 6 3 6 7 9 11 11 10 10 10 11 11 10 8 8 7 7 9 10 11 11 10 9 10 10 10 11 11 11 11 11 11 10 9 8 8 8 8 8 7 7 7 7 7 7 6 6 6 5 4 5 4 4 5 5 5 5 4 5 7 8 9 11 12 11
4 5 5 5 5 4 4 7 7 6 5 2 1 2 2 1 1 4 6 7 9 8 6 8 9 10 12 11 10 11 11 12 13 14 14 13 12 12 13 12 13 14 14 13 12 10 11 12 13 13 13 12 12 11 11 10 10 9 8 8 8 8 8 8 8 7 7 6 6 5 4 4 4 4 4 4 4 5 5 5 5 6 8 10 11 12
6 6 5 4 5 4 5 7 6 6 3 2 2 2 2 2 6 10 9 7 8 9 10 11 9 9 12 12 12 13 13 13 13 13 14 14 12 13 14 14 14 14 14 13 12 11 13 15 16 16 15 14 12 12 12 11 9 9 8 8 8 8 8 8 9 9 8 7 7 5 4 4 3 3 2 3 3 4 6 6 7 8 10 10 11 12
6 6 5 4 3 4 5 6 4 1 3 4 3 3 3 6 9 9 8 7 7 8 10 11 10 11 13 14 14 14 15 14 12 11 10 10 9 9 9 8 7 8 8 9 10 13 16 17 18 18 18 18 17 16 15 14 12 10 9 9 8 7 7 7 8 9 8 7 7 7 6 5 3 2 1 1 1 2 4 5 7 9 9 9 10 9
4 5 5 4 3 4 6 5 3 3 3 3 4 3 1 2 3 3 5 5 3 5 10 11 11 12 12 13 14 14 15 14 11 9 11 11 9 8 7 6 6 7 7 7 10 14 16 17 17 17 17 18 19 19 18 17 15 12 9 9 8 7 7 7 8 8 7 7 7 6 6 5 4 2 1 1 2 3 3 3 5 6 7 8 9 8
4 4 4 4 4 5 6 5 4 4 4 3 5 3 3 4 4 3 4 6 3 4 10 12 12 14 13 12 13 13 11 10 9 7 9 12 12 12 11 10 10 10 9 7 8 10 12 13 12 12 13 13 13 14 14 14 14 13 11 9 8 7 8 8 8 8 8 7 7 6 5 5 5 4 3 3 4 3 3 3 4 5 6 6 7 7
4 2 3 5 6 5 6 7 5 2 0 3 5 3 2 2 4 3 3 5 4 5 9 11 12 13 12 12 12 9 5 4 7 7 7 9 9 9 9 9 9 10 10 8 6 7 9 8 6 6 7 8 9 10 10 10 10 10 10 9 7 7 8 9 9 8 8 8 8 7 6 5 5 5 5 5 5 4 4 5 5 6 6 6 7 7
4 3 3 6 6 5 6 7 3 2 3 3 3 3 2 2 3 5 5 5 6 6 7 8 9 9 8 9 7 3 3 3 7 8 8 9 9 9 8 8 9 9 9 10 9 8 7 7 6 6 7 7 8 9 9 8 7 6 7 7 7 6 7 7 7 7 7 7 6 6 5 5 5 5 6 7 6 5 5 6 6 6 7 7 8 9
4 4 5 7 6 4 5 6 1 4 4 4 3 3 3 2 2 2 2 5 6 7 7 7 7 6 6 6 5 7 7 7 9 9 8 9 8 8 8 8 8 8 9 9 8 8 8 7 7 7 8 8 8 8 8 8 8 7 7 7 6 5 6 7 7 7 7 7 6 6 5 5 6 6 7 8 7 6 7 7 7 7 7 8 9 9
3 4 5 6 6 5 4 5 2 4 3 5 4 4 4 3 1 2 4 6 6 6 7 7 6 6 6 6 7 7 8 10 10 9 9 8 7 7 8 8 8 8 9 9 8 9 9 8 7 7 8 8 8 8 8 8 8 8 7 7 7 6 6 7 8 8 8 8 7 7 6 6 6 7 7 8 8 8 9 9 9 9 9 10 11 11
2 3 5 2 2 4 5 4 2 3 2 4 2 3 4 3 4 5 6 7 7 7 8 7 6 6 6 7 7 7 8 8 7 7 8 8 7 7 7 7 7 7 8 8 8 9 10 9 8 8 8 8 8 8 8 8 8 8 7 8 8 8 7 7 9 9 9 9 9 9 9 9 8 8 8 8 8 9 10 11 11 11 11 12 13 13
4 4 4 3 4 4 3 1 1 4 4 2 2 4 5 5 6 6 6 6 7 7 7 7 6 6 6 6 6 6 6 6 6 7 7 6 6 6 6 6 6 6 7 7 7 8 9 9 8 9 8 8 8 8 9 9 9 9 9 9 10 9 8 9 10 9 9 9 10 10 11 11 11 10 10 9 9 10 11 12 13 14 14 14 15 16
5 4 3 4 5 4 4 5 3 4 6 6 6 7 7 7 6 5 6 6 5 6 6 6 6 6 5 4 5 5 5 6 6 7 6 6 6 6 6 6 6 7 7 7 7 8 9 9 8 8 8 8 8 9 9 9 10 10 11 11 11 11 11 11 11 11 11 11 11 12 12 12 12 12 12 12 11 11 12 13 14 15 16 17 17 18
5 3 3 3 6 7 7 6 5 6 7 8 8 8 8 7 7 8 9 8 7 7 6 5 6 6 6 5 5 5 5 6 6 6 5 5 5 6 6 6 6 7 7 7 7 7 8 8 8 8 8 8 9 9 9 9 10 11 11 12 12 12 12 12 12 12 12 12 13 13 14 14 14 14 14 14 14 14 14 14 15 16 17 18 19 20
3 2 2 3 5 4 4 6 7 7 8 8 7 8 8 7 7 7 7 8 8 8 7 6 6 6 6 7 6 5 5 6 5 5 5 4 4 5 5 6 6 6 6 6 7 7 8 8 8 8 9 9 10 10 10 10 11 11 12 12 12 12 12 13 13 13 13 13 14 14 15 15 15 15 15 15 16 16 16 16 17 17 17 18 19 20
2 1 1 1 2 2 5 8 8 7 8 7 6 6 7 7 8 8 8 8 8 8 8 7 6 6 6 6 6 5 5 5 5 5 4 4 4 5 5 6 7 8 8 7 8 8 8 8 8 9 10 10 10 10 10 10 10 11 12 12 12 13 13 13 13 14 14 14 15 15 15 15 16 16 17 17 17 17 17 18 19 19 20 20 20 21
2 3 1 1 3 5 7 8 8 7 7 6 5 6 6 6 7 8 8 7 8 7 7 6 6 6 6 6 5 4 4 4 5 5 5 4 4 6 7 8 8 9 9 9 9 9 9 9 10 11 12 12 12 12 12 12 12 12 13 13 12 12 13 14 14 14 15 15 15 15 16 16 17 17 17 17 18 18 18 19 20 20 20 19 16 15
3 2 1 1 2 3 5 7 6 3 4 5 6 6 6 5 5 6 5 5 5 5 4 4 4 5 6 6 5 5 4 4 5 5 5 5 6 7 8 9 9 9 9 10 10 10 10 10 11 11 12 12 12 12 11 11 12 12 12 13 13 13 14 15 15 16 15 15 15 15 16 16 17 18 18 19 20 20 20 20 21 22 22 20 17 14
3 4 3 1 1 3 5 6 3 2 3 6 6 5 4 4 3 3 3 3 3 3 3 4 4 4 4 4 3 4 5 5 5 6 6 6 7 8 9 10 10 10 10 10 10 10 11 11 10 10 10 10 10 10 10 11 11 12 12 13 13 13 14 15 15 15 16 16 16 17 17 17 18 19 19 20 21 21 22 22 22 23 24 24 25 24
Wind_Direction
201 212 217 218 225 212 212 227 235 281 306 291 253 218 224 232 205 221 212 145 183 214 203 219 227 220 227 229 200 177 193 211 216 213 196 189 187 191 197 183 179 184 180 185 192 198 200 197 199 187 173 161 118 110 125 129 109 105 118 125 138 151 143 142 154 180 212 201 152 148 143 137 132 121 120 116 109 107 99 97 98 98 99 98 101 105
210 223 222 219 230 224 210 226 241 296 299 278 271 245 224 237 218 205 189 141 172 222 215 215 230 227 220 233 214 174 189 210 215 212 196 195 193 192 198 185 176 177 174 181 190 197 197 195 192 179 168 143 109 110 129 129 115 119 140 155 163 162 156 160 166 191 223 198 154 154 142 135 130 127 130 121 111 109 101 93 90 90 92 90 89 86
215 230 231 221 222 234 215 231 249 260 255 249 256 258 233 228 225 198 157 137 174 204 231 223 225 229 224 230 202 168 197 210 213 215 200 200 198 190 194 182 170 175 179 182 188 194 193 192 185 176 164 128 115 126 128 121 132 143 155 169 172 164 164 170 168 196 228 184 151 149 136 135 125 118 113 111 113 110 106 100 95 92 90 87 84 82
212 220 227 218 184 190 223 233 244 242 239 242 242 244 240 221 219 207 167 190 199 200 242 240 227 229 225 219 186 179 206 208 212 216 202 198 199 192 189 177 174 179 182 186 188 191 189 189 182 175 151 116 117 137 136 133 153 157 161 170 167 158 164 167 161 194 215 156 137 129 119 114 109 108 106 109 112 107 107 105 101 98 94 91 83 75
236 204 206 205 163 192 223 219 224 235 226 228 236 240 242 225 222 227 178 195 199 203 240 254 243 227 205 201 201 193 203 203 206 210 199 192 193 190 184 180 181 181 186 188 185 188 185 182 179 170 146 122 121 136 147 155 165 161 164 168 161 159 162 158 158 182 179 140 129 121 110 104 106 115 122 122 118 112 112 108 105 104 99 95 86 77
242 142 143 206 187 203 223 216 213 225 229 222 225 238 252 247 227 208 165 191 212 207 212 223 241 225 187 202 208 187 194 198 196 202 197 191 189 185 183 183 184 186 191 189 184 190 180 169 169 153 115 109 125 150 166 169 168 164 167 166 161 166 163 157 164 169 154 136 131 126 120 121 126 130 132 127 122 119 113 108 107 100 97 97 91 84
231 151 166 217 215 212 219 223 213 212 236 236 206 218 245 262 246 214 194 203 227 232 192 200 235 235 184 200 198 183 193 196 194 199 195 194 192 186 185 182 190 196 191 193 186 166 136 145 150 127 85 91 126 161 176 170 167 161 162 162 158 160 158 158 163 153 140 139 138 136 136 139 139 133 125 121 118 114 109 109 105 98 99 101 97 90
222 197 190 204 212 216 217 225 212 202 228 248 191 198 224 243 242 229 229 225 232 259 192 200 232 243 196 196 186 180 194 198 192 193 196 197 189 189 189 180 189 196 194 204 168 114 119 203 166 150 150 132 136 158 169 166 165 137 138 152 151 152 155 157 153 142 142 145 145 147 148 145 138 128 125 123 119 114 116 117 111 109 109 105 105 98
206 219 205 197 210 215 217 224 207 202 225 246 201 200 214 226 226 224 234 237 235 244 230 214 224 234 217 194 179 177 196 200 184 180 196 192 178 192 196 183 183 193 202 189 116 120 192 222 187 151 146 135 134 147 148 142 134 107 123 142 147 154 156 150 142 144 153 153 154 157 151 145 134 129 131 129 126 123 123 121 113 114 112 106 104 98
184 215 206 198 210 215 221 222 194 198 218 229 219 216 213 223 225 225 233 235 229 237 244 225 212 219 210 174 170 184 205 201 173 169 187 172 174 202 201 183 176 191 193 128 121 158 190 212 193 141 131 129 135 147 146 132 130 132 143 149 151 154 152 146 141 147 157 157 164 162 148 144 136 135 138 133 132 131 128 125 121 121 120 115 108 97
109 211 211 205 217 227 225 208 183 210 216 196 228 223 211 220 224 227 237 236 228 234 243 229 212 223 216 165 177 204 208 188 159 163 178 164 173 208 214 187 176 190 156 128 161 176 171 182 171 139 138 134 137 147 153 154 148 144 152 158 154 150 149 150 148 151 158 159 170 158 141 142 141 141 142 138 140 140 137 136 134 131 126 120 113 102
222 210 210 218 232 258 274 196 205 230 228 216 229 222 206 209 213 217 223 225 230 234 237 222 208 222 227 182 192 188 158 148 164 174 177 169 171 199 221 209 185 183 152 151 174 165 153 163 156 149 143 131 137 150 151 153 152 149 156 159 155 153 153 154 153 155 157 153 155 149 142 145 146 146 147 149 150 148 146 144 141 136 130 125 117 109
218 210 200 210 223 234 243 216 191 214 227 221 225 224 215 207 208 221 216 215 227 233 237 221 205 214 212 128 136 129 119 127 148 156 167 168 169 185 198 207 210 186 166 165 162 151 155 156 149 154 141 128 141 153 148 150 154 156 160 160 158 159 158 157 160 163 162 157 154 154 153 151 154 157 155 156 156 152 151 147 145 143 137 132 123 113
207 209 203 207 205 205 231 233 182 189 210 214 219 221 219 206 210 229 221 216 225 213 210 214 208 218 197 126 114 95 108 138 110 107 141 154 164 187 186 190 198 171 157 169 164 163 166 150 145 151 142 137 148 155 154 158 158 155 157 158 158 158 158 157 157 160 161 161 160 164 164 159 164 169 163 161 160 155 153 150 150 147 140 134 127 121
206 207 200 206 196 184 214 241 235 202 198 211 226 230 229 218 218 236 238 235 241 214 190 191 210 228 216 140 123 117 127 147 124 124 144 154 173 192 184 178 171 144 151 173 163 164 161 145 146 147 142 145 154 160 163 163 160 154 154 157 156 157 160 159 158 162 163 162 165 173 173 167 171 174 169 165 161 157 154 153 152 147 141 136 131 127
222 218 194 203 206 188 203 230 247 241 210 204 222 230 228 227 227 236 249 303 325 279 205 186 213 215 147 130 116 111 125 141 130 130 137 144 158 156 144 148 144 138 159 165 149 154 141 117 121 136 142 152 161 166 165 164 164 157 153 156 155 157 163 165 165 166 162 158 166 179 181 176 177 177 174 167 160 158 155 154 153 148 143 138 132 130
229 233 186 192 205 207 208 215 224 238 235 200 218 232 228 234 250 248 208 148 174 263 239 192 219 181 149 162 141 130 162 159 133 113 103 101 109 112 112 121 129 136 148 148 143 139 119 107 113 137 147 158 164 165 164 162 157 147 143 144 143 150 159 165 165 163 158 155 163 180 184 182 180 178 177 168 159 157 154 152 153 148 144 139 136 136
237 252 185 181 199 210 218 234 232 234 245 226 216 234 235 231 260 268 246 192 199 234 233 204 216 204 187 181 159 166 178 157 126 107 98 96 96 97 98 104 117 127 130 129 124 112 111 125 140 140 141 154 160 163 162 155 142 135 139 141 140 147 156 164 165 160 156 154 163 177 181 183 183 180 177 168 159 156 154 152 152 151 149 145 143 143
233 255 213 191 207 204 198 238 245 231 240 253 261 252 240 234 231 231 241 237 223 232 232 212 213 225 231 189 167 176 162 128 118 113 108 103 98 97 95 96 103 111 115 118 116 115 119 125 121 116 129 142 138 139 142 139 128 121 130 142 146 150 153 159 163 161 156 155 163 172 176 183 186 184 177 167 161 158 155 156 156 158 158 152 150 149
211 252 230 205 220 206 186 213 232 220 221 239 263 255 235 246 248 230 229 236 231 230 230 221 212 221 300 69 166 164 129 120 129 121 110 100 95 97 96 96 102 108 114 115 114 119 122 122 127 135 146 139 125 123 130 136 131 122 126 137 138 141 147 152 155 158 159 163 169 174 179 184 189 190 179 167 165 161 158 162 163 164 165 158 154 154
197 223 233 226 232 219 201 210 221 224 214 212 227 235 230 230 230 236 242 241 244 240 229 230 213 150 27 3 173 144 128 138 139 120 112 103 97 94 90 94 101 108 114 115 117 122 125 133 144 146 141 132 127 132 139 143 138 130 133 137 133 137 147 151 154 159 164 171 177 180 181 183 187 188 178 168 168 167 166 169 169 169 168 162 160 159
205 215 228 233 232 225 227 225 220 229 239 224 215 221 230 230 222 232 237 230 240 253 246 243 212 108 26 349 82 122 128 138 133 122 116 106 100 97 95 97 99 102 107 112 117 124 129 140 147 144 140 140 142 149 151 149 143 136 137 141 139 145 153 155 161 170 173 174 179 181 180 182 184 182 178 173 171 173 174 173 172 171 169 165 166 167
310 241 238 232 231 235 248 262 243 241 259 259 242 228 227 229 230 236 244 238 239 251 256 256 234 123 7 347 56 117 140 136 132 128 116 107 104 104 106 106 107 110 113 113 115 117 121 133 143 146 146 148 151 153 152 149 144 136 139 146 149 153 156 155 160 169 174 173 177 180 179 181 181 180 181 179 176 177 175 172 173 174 175 174 173 174
350 239 250 244 244 246 234 243 257 248 250 253 249 242 235 232 231 233 241 249 250 248 246 250 238 149 114 1 76 134 137 124 125 128 123 116 112 114 117 114 113 115 113 112 115 121 127 135 142 146 151 153 148 144 150 155 144 138 145 156 158 157 155 153 156 159 160 166 174 180 182 182 179 179 182 182 182 180 174 172 175 180 185 183 179 180
216 228 246 245 247 242 221 210 217 220 230 240 238 241 246 242 242 248 244 235 248 250 242 245 237 125 116 139 135 139 137 124 118 122 123 118 116 122 127 123 121 122 121 119 117 121 127 135 143 147 150 153 145 138 149 157 146 144 151 155 154 153 152 154 158 158 159 163 169 176 184 186 182 179 181 185 187 184 178 176 178 184 188 186 184 184
203 201 263 255 253 252 237 238 262 239 223 228 230 240 253 244 243 253 247 234 243 246 246 250 179 113 121 143 133 131 137 128 118 118 116 115 122 128 130 126 122 121 122 120 121 128 132 134 140 142 141 142 142 139 143 147 145 145 147 144 144 147 152 158 160 163 165 165 167 174 183 186 183 179 180 184 186 187 187 186 185 186 187 188 188 185
174 106 48 302 264 296 315 324 325 311 257 227 221 224 239 242 244 252 248 244 250 246 256 249 145 135 139 142 135 132 135 128 124 124 122 124 126 123 125 127 125 124 122 118 120 130 134 132 133 135 134 131 128 126 129 130 126 125 128 130 136 144 155 163 165 167 167 167 171 179 182 182 181 178 178 182 184 188 192 193 192 191 191 194 194 190
196 160 110 85 148 266 295 320 335 324 290 251 226 219 226 226 225 236 246 261 280 268 276 90 119 131 137 135 131 127 123 124 130 129 125 126 125 122 128 131 128 125 117 112 115 115 112 115 119 126 129 125 121 122 123 122 118 116 119 120 123 129 135 148 158 161 162 167 176 184 183 179 179 184 185 184 185 188 194 201 202 200 199 202 202 200
218 177 151 145 144 225 298 335 350 334 321 328 49 77 106 191 192 194 207 299 300 250 134 109 110 116 124 122 113 100 91 96 112 118 117 120 123 127 129 124 122 121 112 105 107 104 100 106 111 117 126 129 130 129 124 119 116 111 108 107 107 108 111 121 138 147 152 161 171 182 186 180 179 188 190 188 189 191 195 201 205 209 212 213 211 208
228 162 153 177 191 200 309 9 15 339 329 343 21 33 46 74 96 99 81 71 87 101 107 112 112 109 107 103 101 98 91 93 102 109 114 120 126 130 127 121 120 117 112 106 101 99 100 105 104 103 113 125 129 131 129 122 116 113 113 117 118 118 124 128 133 145 154 159 163 168 178 180 180 187 191 189 191 197 200 202 206 212 217 222 219 209
214 166 148 175 214 214 227 331 2 347 335 333 336 344 1 48 65 62 52 57 90 111 114 110 107 106 102 99 109 119 116 113 109 107 111 118 126 129 123 121 121 116 110 106 101 98 98 99 98 96 95 95 98 112 121 118 116 116 116 119 120 118 121 122 122 130 134 131 134 143 154 163 173 184 188 187 192 204 208 207 211 214 216 222 224 212
192 176 164 190 234 228 201 207 223 1 345 317 303 308 328 16 50 56 47 38 49 103 133 123 109 113 119 115 120 122 115 110 103 100 109 114 121 129 127 123 123 120 119 117 110 100 89 86 88 87 89 93 93 97 105 108 110 110 107 106 104 102 104 109 114 115 110 110 114 122 135 142 147 161 170 176 187 197 199 201 209 214 211 213 220 218
170 177 186 200 231 240 197 192 184 156 225 286 278 285 354 35 54 62 58 44 30 28 122 122 108 120 127 124 121 111 93 80 68 60 69 75 71 84 108 118 114 105 99 98 99 94 81 73 70 66 66 70 72 74 82 90 90 91 96 97 98 105 109 106 106 106 103 105 104 107 122 132 135 141 150 168 183 185 191 200 202 207 210 211 218 228
174 201 210 205 223 235 186 171 178 200 213 224 201 117 80 79 161 82 66 55 44 40 66 91 105 124 130 130 124 106 82 65 57 48 44 49 50 46 51 59 63 60 57 55 63 72 67 58 54 53 53 55 55 56 63 72 78 80 83 85 85 91 94 93 92 91 91 92 94 102 113 119 130 141 149 173 184 187 205 221 220 222 223 222 226 232
184 202 222 220 221 216 164 164 200 233 223 85 86 127 129 139 121 99 81 68 74 84 89 93 98 102 104 112 115 107 95 82 72 60 48 47 54 56 51 46 40 39 42 42 42 43 44 44 41 37 35 38 43 46 47 50 58 68 72 74 76 75 76 81 83 77 73 73 73 77 82 88 101 116 141 175 183 190 204 218 231 231 223 219 222 223
196 200 226 237 217 188 173 189 214 197 95 89 108 136 144 142 131 111 85 69 86 109 110 103 100 95 98 109 114 114 112 102 88 83 76 63 59 65 69 67 58 49 47 44 34 26 27 32 34 28 22 22 23 26 29 29 32 44 50 48 56 64 65 70 74 71 65 60 56 51 45 49 62 67 85 181 194 217 215 213 219 219 213 217 222 221
234 221 234 245 225 203 205 206 174 129 142 145 124 100 57 109 119 98 95 91 88 125 124 120 119 116 114 118 119 122 123 114 103 105 112 114 117 117 116 126 123 104 88 78 60 45 37 34 35 31 26 22 17 14 16 15 16 27 38 33 32 45 54 55 57 56 51 48 46 37 24 19 17 14 347 294 262 244 235 219 214 211 209 216 219 215
249 235 236 240 229 230 242 235 196 186 204 155 110 69 8 13 4 7 106 110 97 140 136 133 133 131 129 130 134 140 139 119 105 109 117 124 133 137 140 147 142 126 117 114 97 77 61 47 40 39 37 30 20 12 11 11 10 13 20 25 28 39 47 44 39 35 30 25 21 15 10 359 346 343 333 303 285 270 252 241 235 223 209 207 209 206
260 239 237 244 235 236 255 254 239 231 219 99 93 67 26 8 337 295 189 142 123 137 137 137 140 139 139 145 149 160 180 142 116 116 116 115 113 112 117 120 112 100 94 87 77 76 75 66 56 55 50 38 25 13 8 14 16 6 4 12 20 34 41 35 26 21 17 12 5 359 357 347 331 325 315 303 302 299 276 259 250 232 212 207 213 211
254 257 253 252 248 251 260 257 247 76 63 63 57 37 23 358 315 262 212 152 128 132 129 130 135 130 133 146 138 89 18 89 117 118 113 109 100 88 83 80 73 70 70 62 47 39 50 57 51 45 39 30 23 13 5 9 11 2 360 1 1 18 28 18 10 6 2 359 352 347 347 340 331 325 313 304 305 302 282 266 253 235 222 222 225 219
237 247 247 246 253 279 286 272 237 90 65 27 25 18 353 333 284 243 156 114 126 143 133 125 130 132 138 141 105 69 63 84 104 107 100 96 91 79 71 63 56 51 49 48 42 29 25 30 33 28 21 14 8 3 2 2 356 351 354 349 344 356 0 351 347 346 340 335 330 332 336 333 332 331 318 304 299 292 280 270 262 249 236 233 236 231
258 257 246 243 251 261 266 260 216 95 30 340 12 27 335 308 158 113 103 113 127 128 111 105 112 121 121 104 89 94 100 101 104 104 94 85 78 70 60 50 42 38 31 27 30 27 15 8 12 14 7 3 359 354 355 353 345 341 341 337 336 339 335 332 332 327 319 314 311 312 313 312 314 315 311 304 300 293 280 268 262 255 245 240 242 244
357 289 255 263 298 267 250 251 239 90 25 310 348 49 358 8 94 108 117 123 120 106 96 97 96 93 98 99 99 106 107 101 98 94 85 78 69 60 54 44 32 29 24 13 14 18 7 354 357 359 351 348 350 347 344 340 334 331 327 323 324 322 317 317 316 311 306 302 300 298 294 292 291 291 291 290 290 288 283 274 265 257 250 245 244 246
23 315 280 37 19 304 283 306 32 69 63 15 37 72 70 80 107 129 129 124 126 118 106 101 94 88 99 113 113 107 99 88 76 67 61 58 52 44 40 37 30 26 19 7 5 9 358 346 346 343 336 336 340 338 335 329 323 319 315 312 312 309 305 305 304 301 298 293 288 285 282 278 277 275 273 273 275 276 275 271 266 260 254 248 245 245
40 20 5 50 51 26 46 79 91 77 68 58 63 84 94 92 96 101 96 98 108 106 99 103 101 88 84 102 110 101 80 62 57 55 44 36 40 36 26 26 27 21 9 359 359 358 347 338 336 331 328 332 334 329 325 321 314 309 306 305 305 302 299 299 298 296 293 288 284 281 278 275 272 269 266 266 265 265 265 265 263 259 255 250 248 246
63 44 24 77 103 90 75 86 100 93 84 75 72 80 82 76 74 73 72 73 73 72 77 91 94 78 60 60 72 74 60 47 42 44 37 28 28 27 20 19 17 9 359 353 355 354 342 332 329 326 326 329 328 323 319 314 307 301 298 298 297 294 291 291 290 287 286 284 283 281 278 274 272 269 266 263 261 259 257 256 256 255 254 252 250 248
75 20 21 130 149 137 102 104 106 105 106 102 95 94 91 87 87 82 76 76 78 77 76 77 79 73 62 55 51 48 52 50 41 35 30 23 22 21 17 11 4 358 354 352 352 351 341 332 329 330 329 327 324 321 317 313 308 303 299 297 293 290 287 285 282 280 278 277 277 276 274 272 270 269 267 265 263 259 255 253 253 253 251 251 250 249
48 309 251 140 144 125 119 121 119 116 117 117 114 112 107 101 99 94 90 90 91 89 85 79 69 61 56 51 44 43 52 55 45 29 15 10 16 15 9 3 356 350 349 350 351 349 341 333 329 328 325 322 320 316 311 309 308 307 305 302 298 294 290 287 284 281 278 275 275 274 272 271 270 270 268 267 264 261 258 257 256 253 249 249 251 251
304 261 259 91 109 116 126 138 139 133 131 126 112 105 108 110 108 105 106 108 103 95 92 90 82 75 66 49 35 35 52 58 46 25 3 359 8 6 359 355 351 350 348 346 345 342 336 330 329 325 321 318 317 314 311 309 309 308 306 302 299 295 291 288 287 284 281 278 276 274 272 271 270 268 266 265 264 263 262 261 260 260 257 253 253 255
284 293 359 201 183 151 142 147 143 135 139 133 116 105 104 104 106 107 105 98 89 78 70 73 83 87 78 61 41 28 33 42 31 12 358 358 5 0 352 349 349 349 347 343 339 337 336 335 333 329 325 323 323 322 322 319 317 316 313 310 307 303 296 291 287 283 280 276 274 273 273 273 272 271 270 268 265 262 262 261 261 263 265 265 268 272
346 354 4 351 42 88 123 139 125 69 108 124 124 121 116 113 120 121 101 81 74 61 37 22 19 33 52 62 61 40 21 10 5 359 352 350 354 353 351 351 350 345 343 343 341 340 340 339 337 334 332 332 332 331 329 325 322 319 317 314 311 307 302 299 296 292 287 282 279 279 279 277 277 276 274 272 272 269 267 265 261 257 258 261 267 273